| time (UTC) | temp F | wind direction | speed knots | gust knots | rain 1hr in | rain 24hr in | rain mn in | humidity % | barometer mb |
| 20260506182147 | 83 | 185 | 7.8 | 12.2 | 0.00 | 0.00 | 0.02 | 80 | 1013.2 |
| 20260506181647 | 83 | 157 | 7.8 | 10.4 | 0.00 | 0.00 | 0.02 | 80 | 1012.9 |
| 20260506181147 | 83 | 154 | 6.1 | 14.8 | 0.00 | 0.00 | 0.02 | 80 | 1012.9 |
| 20260506180646 | 83 | 180 | 6.1 | 12.2 | 0.00 | 0.00 | 0.02 | 80 | 1012.9 |
| 20260506180146 | 84 | 167 | 7.8 | 14.8 | 0.00 | 0.00 | 0.02 | 80 | 1012.9 |
| 20260506175646 | 83 | 201 | 8.7 | 11.3 | 0.00 | 0.00 | 0.02 | 81 | 1013.2 |
| 20260506175147 | 83 | 185 | 9.6 | 13.9 | 0.00 | 0.00 | 0.02 | 83 | 1013.2 |
| 20260506174646 | 83 | 161 | 10.4 | 13.9 | 0.00 | 0.00 | 0.02 | 82 | 1013.2 |
| 20260506174147 | 82 | 201 | 5.2 | 10.4 | 0.00 | 0.00 | 0.02 | 84 | 1013.2 |
| 20260506173648 | 82 | 170 | 6.1 | 9.6 | 0.00 | 0.00 | 0.02 | 85 | 1013.2 |
| 20260506173147 | 82 | 160 | 6.1 | 10.4 | 0.00 | 0.00 | 0.02 | 86 | 1013.2 |
| 20260506172647 | 82 | 170 | 7.8 | 8.7 | 0.00 | 0.00 | 0.02 | 87 | 1013.5 |
| 20260506172147 | 81 | 184 | 6.1 | 7.8 | 0.00 | 0.00 | 0.02 | 88 | 1013.5 |
| 20260506171647 | 80 | 173 | 8.7 | 9.6 | 0.00 | 0.00 | 0.02 | 88 | 1013.5 |
| 20260506171147 | 80 | 163 | 9.6 | 9.6 | 0.00 | 0.00 | 0.02 | 90 | 1013.5 |
| 20260506170646 | 80 | 157 | 8.7 | 10.4 | 0.02 | 0.00 | 0.02 | 91 | 1013.5 |
| 20260506170147 | 80 | 172 | 3.5 | 9.6 | 0.02 | 0.00 | 0.02 | 91 | 1013.5 |
| 20260506165650 | 80 | 166 | 10.4 | 12.2 | 0.00 | 0.00 | 0.01 | 89 | 1013.9 |
| 20260506165147 | 80 | 168 | 7.8 | 13.0 | 0.00 | 0.00 | 0.01 | 88 | 1013.5 |
| 20260506164647 | 81 | 161 | 9.6 | 11.3 | 0.00 | 0.00 | 0.01 | 87 | 1013.5 |
| 20260506164147 | 81 | 164 | 4.3 | 12.2 | 0.00 | 0.00 | 0.01 | 88 | 1013.5 |
| 20260506163648 | 80 | 170 | 5.2 | 13.0 | 0.00 | 0.00 | 0.01 | 88 | 1013.5 |
| 20260506163146 | 81 | 180 | 6.1 | 11.3 | 0.00 | 0.00 | 0.01 | 88 | 1013.5 |
| 20260506162647 | 80 | 174 | 8.7 | 11.3 | 0.00 | 0.00 | 0.01 | 88 | 1013.2 |
| 20260506162146 | 81 | 170 | 7.8 | 12.2 | 0.00 | 0.00 | 0.01 | 87 | 1013.2 |
| 20260506161647 | 81 | 152 | 8.7 | 9.6 | 0.00 | 0.00 | 0.01 | 87 | 1012.9 |
| 20260506161146 | 81 | 160 | 5.2 | 7.0 | 0.00 | 0.00 | 0.01 | 88 | 1013.2 |
| 20260506160648 | 80 | 183 | 7.0 | 10.4 | 0.00 | 0.00 | 0.01 | 89 | 1013.2 |
| 20260506160147 | 80 | 197 | 4.3 | 13.9 | 0.00 | 0.00 | 0.01 | 88 | 1013.2 |
| 20260506155647 | 81 | 167 | 7.8 | 10.4 | 0.00 | 0.00 | 0.01 | 88 | 1012.9 |
| 20260506155147 | 81 | 186 | 7.0 | 8.7 | 0.00 | 0.00 | 0.01 | 89 | 1012.9 |
| 20260506154647 | 80 | 170 | 7.0 | 11.3 | 0.00 | 0.00 | 0.01 | 89 | 1013.2 |
| 20260506154147 | 80 | 163 | 7.8 | 11.3 | 0.00 | 0.00 | 0.01 | 89 | 1013.2 |
| 20260506153647 | 80 | 169 | 7.0 | 9.6 | 0.00 | 0.00 | 0.01 | 90 | 1012.9 |
| 20260506153147 | 79 | 159 | 9.6 | 11.3 | 0.00 | 0.00 | 0.01 | 90 | 1012.9 |
| 20260506152646 | 79 | 176 | 9.6 | 13.0 | 0.00 | 0.00 | 0.01 | 91 | 1012.9 |
| 20260506152146 | 79 | 184 | 7.8 | 11.3 | 0.00 | 0.00 | 0.01 | 91 | 1012.9 |
| 20260506151647 | 79 | 163 | 5.2 | 8.7 | 0.00 | 0.00 | 0.01 | 91 | 1012.9 |
| 20260506151147 | 79 | 172 | 6.1 | 9.6 | 0.00 | 0.00 | 0.01 | 91 | 1012.9 |
| 20260506150646 | 79 | 164 | 7.8 | 9.6 | 0.00 | 0.00 | 0.01 | 91 | 1012.9 |
| 20260506150147 | 79 | 173 | 7.0 | 9.6 | 0.00 | 0.00 | 0.01 | 91 | 1012.9 |
| 20260506145647 | 79 | 153 | 7.0 | 13.0 | 0.00 | 0.00 | 0.01 | 92 | 1012.9 |
| 20260506145147 | 79 | 167 | 7.0 | 9.6 | 0.00 | 0.00 | 0.01 | 92 | 1012.9 |
| 20260506144646 | 78 | 167 | 8.7 | 10.4 | 0.00 | 0.00 | 0.01 | 93 | 1012.9 |
| 20260506144147 | 78 | 175 | 5.2 | 11.3 | 0.00 | 0.00 | 0.01 | 93 | 1012.9 |
| 20260506143648 | 78 | 163 | 9.6 | 11.3 | 0.00 | 0.00 | 0.01 | 93 | 1012.9 |
| 20260506143146 | 78 | 164 | 8.7 | 11.3 | 0.00 | 0.00 | 0.01 | 93 | 1012.9 |
| 20260506142647 | 78 | 147 | 6.1 | 10.4 | 0.00 | 0.00 | 0.01 | 94 | 1012.5 |
| 20260506142147 | 78 | 169 | 4.3 | 11.3 | 0.00 | 0.00 | 0.01 | 94 | 1012.2 |
| 20260506141647 | 78 | 156 | 5.2 | 9.6 | 0.00 | 0.00 | 0.01 | 94 | 1012.5 |
| 20260506141154 | 77 | 178 | 7.8 | 9.6 | 0.00 | 0.00 | 0.01 | 95 | 1012.5 |
| 20260506140647 | 77 | 168 | 6.1 | 9.6 | 0.00 | 0.00 | 0.01 | 95 | 1012.5 |
| 20260506140149 | 77 | 170 | 5.2 | 10.4 | 0.00 | 0.00 | 0.01 | 95 | 1012.5 |
| 20260506135647 | 77 | 162 | 7.8 | 11.3 | 0.00 | 0.00 | 0.01 | 95 | 1012.2 |
| 20260506135147 | 77 | 153 | 7.0 | 7.0 | 0.00 | 0.00 | 0.01 | 96 | 1012.5 |
| 20260506134647 | 77 | 151 | 4.3 | 7.8 | 0.00 | 0.00 | 0.01 | 96 | 1012.5 |
| 20260506134147 | 77 | 178 | 7.0 | 9.6 | 0.00 | 0.00 | 0.01 | 96 | 1012.5 |
| 20260506133647 | 77 | 142 | 5.2 | 10.4 | 0.00 | 0.00 | 0.01 | 97 | 1012.5 |
| 20260506133146 | 76 | 161 | 4.3 | 7.0 | 0.00 | 0.00 | 0.01 | 97 | 1012.5 |
| 20260506132646 | 76 | 146 | 3.5 | 7.8 | 0.00 | 0.00 | 0.01 | 97 | 1012.5 |
| 20260506132148 | 76 | 170 | 5.2 | 8.7 | 0.00 | 0.00 | 0.01 | 98 | 1012.5 |
| 20260506131646 | 76 | 159 | 4.3 | 7.0 | 0.00 | 0.00 | 0.01 | 98 | 1012.2 |
| 20260506131146 | 76 | 164 | 5.2 | 7.0 | 0.00 | 0.00 | 0.01 | 98 | 1012.5 |
| 20260506130647 | 75 | 154 | 5.2 | 7.8 | 0.00 | 0.00 | 0.01 | 98 | 1012.2 |
| 20260506130147 | 75 | 133 | 4.3 | 7.0 | 0.00 | 0.00 | 0.01 | 99 | 1012.2 |
| 20260506125647 | 75 | 130 | 6.1 | 6.1 | 0.00 | 0.00 | 0.01 | 99 | 1012.5 |
| 20260506125147 | 75 | 158 | 2.6 | 6.1 | 0.00 | 0.00 | 0.01 | 99 | 1012.5 |
| 20260506124647 | 75 | 147 | 1.7 | 5.2 | 0.00 | 0.00 | 0.01 | 99 | 1012.2 |
| 20260506124147 | 75 | 165 | 4.3 | 6.1 | 0.00 | 0.00 | 0.01 | 99 | 1012.2 |
| 20260506123647 | 75 | 161 | 4.3 | 5.2 | 0.00 | 0.00 | 0.01 | 99 | 1012.2 |
| 20260506123146 | 75 | 124 | 2.6 | 5.2 | 0.00 | 0.00 | 0.01 | 99 | 1012.2 |
| 20260506122647 | 75 | 159 | 2.6 | 7.0 | 0.00 | 0.00 | 0.01 | 99 | 1011.9 |
| 20260506122147 | 75 | 133 | 6.1 | 6.1 | 0.00 | 0.00 | 0.01 | 99 | 1011.9 |
| 20260506121647 | 75 | 142 | 2.6 | 6.1 | 0.00 | 0.00 | 0.01 | 99 | 1012.2 |
| 20260506121147 | 75 | 133 | 2.6 | 5.2 | 0.00 | 0.00 | 0.01 | 99 | 1011.9 |
| 20260506120647 | 74 | 137 | 1.7 | 6.1 | 0.00 | 0.00 | 0.01 | 99 | 1011.9 |
| 20260506120147 | 74 | 163 | 3.5 | 5.2 | 0.00 | 0.00 | 0.01 | 99 | 1011.9 |
| 20260506115646 | 74 | 134 | 6.1 | 6.1 | 0.00 | 0.00 | 0.01 | 99 | 1011.9 |
| 20260506115146 | 74 | 133 | 2.6 | 5.2 | 0.00 | 0.00 | 0.01 | 99 | 1011.5 |
| 20260506114646 | 74 | 154 | 3.5 | 6.1 | 0.00 | 0.00 | 0.01 | 99 | 1011.9 |
| 20260506114147 | 74 | 133 | 2.6 | 5.2 | 0.00 | 0.00 | 0.01 | 99 | 1011.5 |
| 20260506113646 | 74 | 171 | 5.2 | 5.2 | 0.00 | 0.00 | 0.01 | 99 | 1011.5 |
| 20260506113147 | 74 | 157 | 3.5 | 4.3 | 0.00 | 0.00 | 0.01 | 99 | 1011.5 |
| 20260506112646 | 74 | 135 | 2.6 | 5.2 | 0.00 | 0.00 | 0.01 | 99 | 1011.9 |
| 20260506112147 | 74 | 147 | 4.3 | 6.1 | 0.00 | 0.00 | 0.01 | 99 | 1011.9 |
| 20260506111647 | 74 | 168 | 6.1 | 6.1 | 0.00 | 0.00 | 0.01 | 99 | 1011.5 |
| 20260506111149 | 74 | 160 | 7.0 | 9.6 | 0.02 | 0.00 | 0.01 | 99 | 1011.5 |
| 20260506110648 | 74 | 164 | 5.2 | 6.1 | 0.02 | 0.00 | 0.01 | 99 | 1011.5 |
| 20260506110147 | 74 | 164 | 6.1 | 7.0 | 0.02 | 0.00 | 0.01 | 99 | 1011.5 |
| 20260506105649 | 74 | 150 | 2.6 | 6.1 | 0.02 | 0.00 | 0.00 | 98 | 1011.2 |
| 20260506105147 | 74 | 167 | 3.5 | 7.0 | 0.02 | 0.00 | 0.00 | 98 | 1011.2 |
| 20260506104648 | 74 | 142 | 4.3 | 4.3 | 0.00 | 0.00 | 0.00 | 98 | 1011.2 |
| 20260506104146 | 74 | 165 | 6.1 | 6.1 | 0.00 | 0.00 | 0.00 | 97 | 1011.2 |
| 20260506103646 | 75 | 138 | 3.5 | 6.1 | 0.00 | 0.00 | 0.00 | 97 | 1011.2 |
| 20260506103146 | 75 | 168 | 4.3 | 7.0 | 0.00 | 0.00 | 0.00 | 96 | 1011.2 |
| 20260506102648 | 75 | 162 | 2.6 | 4.3 | 0.00 | 0.00 | 0.00 | 95 | 1011.2 |
| 20260506102149 | 75 | 154 | 6.1 | 7.8 | 0.00 | 0.00 | 0.00 | 94 | 1011.2 |
| 20260506101647 | 75 | 162 | 2.6 | 7.8 | 0.00 | 0.00 | 0.00 | 94 | 1010.8 |
| 20260506101150 | 75 | 164 | 4.3 | 7.0 | 0.00 | 0.00 | 0.00 | 94 | 1011.2 |
| 20260506100647 | 75 | 145 | 3.5 | 7.8 | 0.00 | 0.00 | 0.00 | 94 | 1011.2 |
| 20260506100146 | 75 | 180 | 5.2 | 7.8 | 0.00 | 0.00 | 0.00 | 94 | 1011.2 |
| 20260506095650 | 75 | 146 | 2.6 | 7.0 | 0.00 | 0.00 | 0.00 | 94 | 1011.2 |
| 20260506095147 | 75 | 146 | 1.7 | 7.0 | 0.00 | 0.00 | 0.00 | 94 | 1010.8 |
| 20260506094646 | 75 | 163 | 2.6 | 6.1 | 0.00 | 0.00 | 0.00 | 94 | 1011.2 |
| 20260506094148 | 75 | 154 | 4.3 | 6.1 | 0.00 | 0.00 | 0.00 | 94 | 1011.2 |
| 20260506093648 | 75 | 168 | 5.2 | 7.0 | 0.00 | 0.00 | 0.00 | 94 | 1010.8 |
| 20260506093147 | 75 | 165 | 4.3 | 6.1 | 0.00 | 0.00 | 0.00 | 94 | 1011.2 |
| 20260506092648 | 75 | 138 | 2.6 | 5.2 | 0.00 | 0.00 | 0.00 | 94 | 1010.8 |
| 20260506092146 | 75 | 150 | 4.3 | 5.2 | 0.00 | 0.00 | 0.00 | 93 | 1011.2 |
| 20260506091647 | 74 | 126 | 5.2 | 6.1 | 0.00 | 0.00 | 0.00 | 93 | 1011.2 |
| 20260506091148 | 74 | 151 | 2.6 | 4.3 | 0.00 | 0.00 | 0.00 | 93 | 1011.2 |
| 20260506090647 | 74 | 139 | 2.6 | 6.1 | 0.00 | 0.00 | 0.00 | 93 | 1011.2 |
| 20260506090147 | 74 | 143 | 4.3 | 5.2 | 0.00 | 0.00 | 0.00 | 93 | 1011.2 |
| 20260506085649 | 74 | 162 | 5.2 | 6.1 | 0.00 | 0.00 | 0.00 | 93 | 1011.2 |
| 20260506085147 | 74 | 146 | 2.6 | 4.3 | 0.00 | 0.00 | 0.00 | 93 | 1011.2 |
| 20260506084646 | 74 | 141 | 1.7 | 5.2 | 0.00 | 0.00 | 0.00 | 92 | 1011.2 |
| 20260506084147 | 74 | 171 | 1.7 | 4.3 | 0.00 | 0.00 | 0.00 | 92 | 1011.2 |
| 20260506083647 | 74 | 158 | 3.5 | 5.2 | 0.00 | 0.00 | 0.00 | 92 | 1011.2 |
| 20260506083148 | 74 | 144 | 2.6 | 4.3 | 0.00 | 0.00 | 0.00 | 92 | 1011.2 |
| 20260506082647 | 74 | 156 | 2.6 | 4.3 | 0.00 | 0.00 | 0.00 | 92 | 1011.2 |
| 20260506082146 | 74 | 157 | 3.5 | 5.2 | 0.00 | 0.00 | 0.00 | 92 | 1010.8 |
| 20260506081649 | 74 | 156 | 3.5 | 5.2 | 0.00 | 0.00 | 0.00 | 92 | 1011.2 |
| 20260506081146 | 74 | 160 | 4.3 | 6.1 | 0.00 | 0.00 | 0.00 | 92 | 1011.2 |
| 20260506080647 | 74 | 156 | 4.3 | 7.0 | 0.00 | 0.00 | 0.00 | 92 | 1011.2 |
| 20260506080147 | 74 | 155 | 2.6 | 5.2 | 0.00 | 0.00 | 0.00 | 92 | 1010.8 |
| 20260506073147 | 73 | 144 | 2.6 | 7.8 | 0.00 | 0.00 | 0.00 | 92 | 1011.2 |
| 20260506072647 | 73 | 166 | 5.2 | 7.8 | 0.00 | 0.00 | 0.00 | 92 | 1011.2 |
| 20260506072147 | 73 | 154 | 4.3 | 5.2 | 0.00 | 0.00 | 0.00 | 93 | 1011.2 |
| 20260506071646 | 73 | 157 | 5.2 | 7.8 | 0.00 | 0.00 | 0.00 | 93 | 1011.2 |
| 20260506071147 | 73 | 172 | 5.2 | 6.1 | 0.00 | 0.00 | 0.00 | 94 | 1011.2 |
| 20260506070647 | 73 | 148 | 6.1 | 7.0 | 0.00 | 0.00 | 0.00 | 94 | 1011.2 |
| 20260506070152 | 73 | 134 | 2.6 | 5.2 | 0.00 | 0.00 | 0.00 | 94 | 1011.2 |
| 20260506062147 | 73 | 157 | 2.6 | 5.2 | 0.00 | 0.00 | 0.00 | 93 | 1011.5 |
| 20260506061647 | 73 | 156 | 2.6 | 6.1 | 0.00 | 0.00 | 0.00 | 93 | 1011.5 |
| 20260506061148 | 73 | 138 | 4.3 | 6.1 | 0.00 | 0.00 | 0.00 | 93 | 1011.5 |
| 20260506060646 | 73 | 166 | 1.7 | 7.8 | 0.00 | 0.00 | 0.00 | 93 | 1011.5 |
| 20260506060146 | 73 | 140 | 4.3 | 6.1 | 0.00 | 0.00 | 0.00 | 93 | 1011.5 |
| 20260506051147 | 73 | 108 | 2.6 | 5.2 | 0.00 | 0.00 | 0.00 | 93 | 1011.9 |
| 20260506050646 | 73 | 159 | 3.5 | 8.7 | 0.00 | 0.00 | 0.00 | 93 | 1011.9 |
| 20260506050146 | 73 | 142 | 5.2 | 8.7 | 0.00 | 0.00 | 0.00 | 93 | 1011.5 |
| 20260506044647 | 73 | 139 | 5.2 | 8.7 | 0.00 | 0.00 | 0.00 | 93 | 1011.9 |
| 20260506044146 | 73 | 139 | 7.8 | 10.4 | 0.00 | 0.00 | 0.00 | 93 | 1011.9 |
| 20260506043647 | 73 | 118 | 2.6 | 7.0 | 0.00 | 0.00 | 0.00 | 93 | 1011.9 |
| 20260506043146 | 73 | 138 | 6.1 | 7.8 | 0.00 | 0.00 | 0.00 | 93 | 1011.9 |
| 20260506042647 | 73 | 157 | 3.5 | 7.8 | 0.00 | 0.00 | 0.00 | 93 | 1011.9 |
| 20260506042147 | 73 | 150 | 7.0 | 10.4 | 0.00 | 0.00 | 0.00 | 93 | 1011.9 |
| 20260506041647 | 73 | 139 | 4.3 | 8.7 | 0.00 | 0.00 | 0.00 | 93 | 1011.9 |
| 20260506041146 | 73 | 146 | 5.2 | 7.8 | 0.00 | 0.00 | 0.00 | 92 | 1011.9 |
| 20260506040647 | 73 | 148 | 5.2 | 8.7 | 0.00 | 0.00 | 0.00 | 92 | 1011.9 |
| 20260506040147 | 73 | 155 | 3.5 | 9.6 | 0.00 | 0.00 | 0.00 | 92 | 1011.9 |
| 20260506035647 | 73 | 148 | 3.5 | 8.7 | 0.00 | 0.00 | 0.00 | 92 | 1011.9 |
| 20260506035146 | 73 | 135 | 6.1 | 8.7 | 0.00 | 0.00 | 0.00 | 92 | 1011.9 |
| 20260506034647 | 73 | 137 | 6.1 | 9.6 | 0.00 | 0.00 | 0.00 | 91 | 1011.9 |
| 20260506034147 | 73 | 136 | 4.3 | 8.7 | 0.00 | 0.00 | 0.00 | 91 | 1011.9 |
| 20260506033647 | 74 | 141 | 4.3 | 9.6 | 0.00 | 0.00 | 0.00 | 91 | 1011.9 |
| 20260506033146 | 74 | 146 | 6.1 | 7.8 | 0.00 | 0.00 | 0.00 | 91 | 1011.9 |
| 20260506032647 | 74 | 148 | 7.0 | 9.6 | 0.00 | 0.00 | 0.00 | 91 | 1011.9 |
| 20260506032147 | 74 | 148 | 5.2 | 9.6 | 0.00 | 0.00 | 0.00 | 90 | 1011.9 |
| 20260506031647 | 74 | 148 | 4.3 | 9.6 | 0.00 | 0.00 | 0.00 | 90 | 1011.9 |
| 20260506031147 | 74 | 142 | 7.8 | 9.6 | 0.00 | 0.00 | 0.00 | 90 | 1011.9 |
| 20260506030647 | 74 | 134 | 4.3 | 7.8 | 0.00 | 0.00 | 0.00 | 90 | 1011.9 |
| 20260506030146 | 74 | 140 | 7.8 | 10.4 | 0.00 | 0.00 | 0.00 | 90 | 1011.9 |
| 20260506025646 | 74 | 132 | 4.3 | 8.7 | 0.00 | 0.00 | 0.00 | 90 | 1012.2 |
| 20260506025147 | 74 | 149 | 5.2 | 11.3 | 0.00 | 0.00 | 0.00 | 90 | 1011.9 |
| 20260506024648 | 74 | 134 | 4.3 | 10.4 | 0.00 | 0.00 | 0.00 | 89 | 1011.9 |
| 20260506024147 | 74 | 146 | 7.0 | 9.6 | 0.00 | 0.00 | 0.00 | 89 | 1011.9 |
| 20260506023647 | 74 | 126 | 3.5 | 7.0 | 0.00 | 0.00 | 0.00 | 88 | 1011.9 |
| 20260506023147 | 74 | 165 | 5.2 | 7.8 | 0.00 | 0.00 | 0.00 | 88 | 1011.5 |
| 20260506022647 | 74 | 144 | 4.3 | 6.1 | 0.00 | 0.00 | 0.00 | 88 | 1011.5 |
| 20260506022148 | 74 | 141 | 5.2 | 7.8 | 0.00 | 0.00 | 0.00 | 88 | 1011.5 |
| 20260506021646 | 74 | 166 | 6.1 | 7.8 | 0.00 | 0.00 | 0.00 | 88 | 1011.5 |
| 20260506021147 | 74 | 155 | 2.6 | 6.1 | 0.00 | 0.00 | 0.00 | 88 | 1011.5 |
| 20260506020647 | 75 | 155 | 6.1 | 7.0 | 0.00 | 0.00 | 0.00 | 87 | 1011.5 |
| 20260506020146 | 75 | 141 | 4.3 | 7.0 | 0.00 | 0.00 | 0.00 | 87 | 1011.5 |
| 20260506015647 | 75 | 144 | 6.1 | 6.1 | 0.00 | 0.00 | 0.00 | 86 | 1011.5 |
| 20260506015146 | 75 | 156 | 6.1 | 8.7 | 0.00 | 0.00 | 0.00 | 85 | 1011.5 |
| 20260506014649 | 75 | 149 | 2.6 | 6.1 | 0.00 | 0.00 | 0.00 | 84 | 1011.2 |
| 20260506014147 | 75 | 154 | 4.3 | 7.0 | 0.00 | 0.00 | 0.00 | 84 | 1011.2 |
| 20260506013647 | 75 | 161 | 3.5 | 5.2 | 0.00 | 0.00 | 0.00 | 84 | 1011.2 |
| 20260506013147 | 75 | 163 | 2.6 | 5.2 | 0.00 | 0.00 | 0.00 | 85 | 1011.2 |
| 20260506012646 | 75 | 164 | 5.2 | 7.0 | 0.00 | 0.00 | 0.00 | 85 | 1011.2 |
| 20260506012147 | 76 | 154 | 4.3 | 7.0 | 0.00 | 0.00 | 0.00 | 85 | 1011.2 |
| 20260506011646 | 76 | 156 | 4.3 | 7.0 | 0.00 | 0.00 | 0.00 | 84 | 1011.5 |
| 20260506011147 | 76 | 163 | 7.0 | 7.8 | 0.00 | 0.00 | 0.00 | 83 | 1011.2 |
| 20260506010647 | 76 | 164 | 4.3 | 7.0 | 0.00 | 0.00 | 0.00 | 83 | 1011.2 |
| 20260506010147 | 76 | 178 | 7.0 | 9.6 | 0.00 | 0.00 | 0.00 | 82 | 1011.2 |
| 20260506005647 | 77 | 166 | 6.1 | 7.0 | 0.00 | 0.00 | 0.00 | 81 | 1011.5 |
| 20260506005147 | 76 | 153 | 7.0 | 8.7 | 0.00 | 0.00 | 0.00 | 81 | 1011.2 |
| 20260506004649 | 77 | 159 | 7.8 | 10.4 | 0.00 | 0.00 | 0.00 | 82 | 1011.2 |
| 20260506004146 | 77 | 163 | 6.1 | 7.8 | 0.00 | 0.00 | 0.00 | 82 | 1011.2 |
| 20260506003653 | 77 | 176 | 7.0 | 7.8 | 0.00 | 0.00 | 0.00 | 81 | 1011.2 |
| 20260506003146 | 77 | 160 | 7.0 | 8.7 | 0.00 | 0.00 | 0.00 | 81 | 1011.5 |
| 20260506002647 | 77 | 171 | 6.1 | 7.8 | 0.00 | 0.00 | 0.00 | 80 | 1011.2 |
| 20260506002147 | 77 | 170 | 7.8 | 9.6 | 0.00 | 0.00 | 0.00 | 80 | 1011.2 |
| 20260506001647 | 77 | 166 | 8.7 | 11.3 | 0.00 | 0.00 | 0.00 | 80 | 1011.2 |
| 20260506001146 | 77 | 174 | 8.7 | 9.6 | 0.00 | 0.00 | 0.00 | 79 | 1011.2 |
| 20260506000648 | 77 | 159 | 6.1 | 7.8 | 0.00 | 0.00 | 0.00 | 79 | 1011.2 |
| 20260506000147 | 77 | 162 | 5.2 | 11.3 | 0.00 | 0.00 | 0.00 | 79 | 1011.2 |
| 20260505235646 | 77 | 152 | 6.1 | 10.4 | 0.00 | 0.00 | 0.00 | 79 | 1011.2 |
| 20260505235147 | 77 | 156 | 7.8 | 10.4 | 0.00 | 0.00 | 0.00 | 79 | 1011.2 |
| 20260505234646 | 78 | 162 | 5.2 | 9.6 | 0.00 | 0.00 | 0.00 | 79 | 1011.2 |
| 20260505234147 | 78 | 163 | 6.1 | 14.8 | 0.00 | 0.00 | 0.00 | 78 | 1011.2 |
| 20260505233647 | 78 | 148 | 6.1 | 10.4 | 0.00 | 0.00 | 0.00 | 77 | 1011.2 |
| 20260505233147 | 78 | 158 | 8.7 | 10.4 | 0.00 | 0.00 | 0.00 | 77 | 1011.2 |
| 20260505232646 | 78 | 171 | 6.1 | 11.3 | 0.00 | 0.00 | 0.00 | 76 | 1011.2 |
| 20260505232147 | 78 | 163 | 6.1 | 9.6 | 0.00 | 0.00 | 0.00 | 76 | 1011.2 |
| 20260505231646 | 78 | 162 | 4.3 | 9.6 | 0.00 | 0.00 | 0.00 | 76 | 1011.5 |
| 20260505231148 | 78 | 160 | 11.3 | 13.9 | 0.00 | 0.00 | 0.00 | 76 | 1011.5 |
| 20260505230646 | 78 | 157 | 6.1 | 13.9 | 0.00 | 0.00 | 0.00 | 76 | 1011.5 |
| 20260505230146 | 79 | 163 | 9.6 | 12.2 | 0.00 | 0.00 | 0.00 | 74 | 1011.2 |
| 20260505225646 | 79 | 133 | 6.1 | 8.7 | 0.00 | 0.00 | 0.00 | 76 | 1011.2 |
| 20260505225146 | 79 | 167 | 8.7 | 13.9 | 0.00 | 0.00 | 0.00 | 75 | 1011.2 |
| 20260505224647 | 79 | 168 | 7.8 | 11.3 | 0.00 | 0.00 | 0.00 | 75 | 1011.5 |
| 20260505224147 | 79 | 166 | 7.8 | 9.6 | 0.00 | 0.00 | 0.00 | 74 | 1011.2 |
| 20260505223647 | 79 | 154 | 7.8 | 14.8 | 0.00 | 0.00 | 0.00 | 74 | 1011.2 |
| 20260505223147 | 79 | 178 | 11.3 | 14.8 | 0.00 | 0.00 | 0.00 | 74 | 1011.2 |
| 20260505222646 | 79 | 205 | 8.7 | 14.8 | 0.00 | 0.00 | 0.00 | 74 | 1011.2 |
| 20260505222147 | 79 | 162 | 6.1 | 14.8 | 0.00 | 0.00 | 0.00 | 74 | 1011.2 |
| 20260505221649 | 79 | 164 | 9.6 | 14.8 | 0.00 | 0.00 | 0.00 | 72 | 1011.2 |
| 20260505221147 | 79 | 175 | 5.2 | 13.9 | 0.00 | 0.00 | 0.00 | 73 | 1011.2 |
| 20260505220647 | 80 | 155 | 7.8 | 13.0 | 0.00 | 0.00 | 0.00 | 73 | 1011.2 |
| 20260505220148 | 80 | 156 | 7.0 | 13.9 | 0.00 | 0.00 | 0.00 | 73 | 1011.2 |
| 20260505215647 | 80 | 171 | 13.0 | 15.6 | 0.00 | 0.00 | 0.00 | 73 | 1011.2 |
| 20260505215147 | 80 | 158 | 6.1 | 14.8 | 0.00 | 0.00 | 0.00 | 73 | 1011.2 |
| 20260505214647 | 80 | 134 | 7.0 | 15.6 | 0.00 | 0.00 | 0.00 | 73 | 1011.2 |
| 20260505214147 | 80 | 169 | 7.8 | 16.5 | 0.00 | 0.00 | 0.00 | 71 | 1011.2 |
| 20260505213646 | 80 | 150 | 11.3 | 14.8 | 0.00 | 0.00 | 0.00 | 74 | 1011.5 |
| 20260505213147 | 79 | 165 | 12.2 | 17.4 | 0.00 | 0.00 | 0.00 | 73 | 1011.2 |
| 20260505212648 | 79 | 162 | 7.0 | 14.8 | 0.00 | 0.00 | 0.00 | 74 | 1011.5 |
| 20260505212146 | 80 | 153 | 11.3 | 17.4 | 0.00 | 0.00 | 0.00 | 73 | 1011.5 |
| 20260505211647 | 80 | 162 | 13.0 | 14.8 | 0.00 | 0.00 | 0.00 | 73 | 1011.5 |
| 20260505211147 | 80 | 160 | 10.4 | 13.0 | 0.00 | 0.00 | 0.00 | 73 | 1011.5 |
| 20260505210647 | 80 | 168 | 7.8 | 16.5 | 0.00 | 0.00 | 0.00 | 73 | 1011.5 |
| 20260505210147 | 80 | 178 | 7.8 | 13.0 | 0.00 | 0.00 | 0.00 | 73 | 1011.5 |
| 20260505205647 | 79 | 171 | 9.6 | 13.9 | 0.00 | 0.00 | 0.00 | 72 | 1011.9 |
| 20260505205147 | 80 | 156 | 8.7 | 13.9 | 0.00 | 0.00 | 0.00 | 72 | 1011.9 |
| 20260505204647 | 80 | 165 | 7.8 | 14.8 | 0.00 | 0.00 | 0.00 | 71 | 1011.9 |
| 20260505204146 | 80 | 148 | 13.9 | 14.8 | 0.00 | 0.00 | 0.00 | 70 | 1011.5 |
| 20260505203646 | 80 | 165 | 11.3 | 13.9 | 0.00 | 0.00 | 0.00 | 72 | 1011.5 |
| 20260505203146 | 80 | 170 | 7.8 | 17.4 | 0.00 | 0.00 | 0.00 | 71 | 1011.5 |
| 20260505202649 | 80 | 164 | 11.3 | 18.2 | 0.00 | 0.00 | 0.00 | 70 | 1011.5 |
| 20260505202146 | 80 | 159 | 4.3 | 16.5 | 0.00 | 0.00 | 0.00 | 71 | 1011.9 |
| 20260505201646 | 80 | 161 | 7.8 | 17.4 | 0.00 | 0.00 | 0.00 | 68 | 1011.9 |
| 20260505201147 | 80 | 168 | 9.6 | 17.4 | 0.00 | 0.00 | 0.00 | 69 | 1011.5 |
| 20260505200647 | 81 | 155 | 6.1 | 13.0 | 0.00 | 0.00 | 0.00 | 69 | 1011.5 |
| 20260505200147 | 80 | 154 | 11.3 | 15.6 | 0.00 | 0.00 | 0.00 | 69 | 1011.9 |
| 20260505195647 | 80 | 161 | 7.0 | 12.2 | 0.00 | 0.00 | 0.00 | 68 | 1011.9 |
| 20260505195147 | 81 | 166 | 6.1 | 10.4 | 0.00 | 0.00 | 0.00 | 68 | 1011.9 |
| 20260505194647 | 81 | 160 | 7.0 | 13.0 | 0.00 | 0.00 | 0.00 | 65 | 1011.9 |
| 20260505194147 | 81 | 188 | 7.0 | 13.0 | 0.00 | 0.00 | 0.00 | 65 | 1011.5 |
| 20260505193647 | 81 | 169 | 8.7 | 13.9 | 0.00 | 0.00 | 0.00 | 65 | 1011.9 |
| 20260505193147 | 81 | 162 | 7.0 | 11.3 | 0.00 | 0.00 | 0.00 | 67 | 1011.9 |
| 20260505192647 | 81 | 144 | 8.7 | 13.0 | 0.00 | 0.00 | 0.00 | 67 | 1011.9 |
| 20260505192147 | 81 | 180 | 10.4 | 13.0 | 0.00 | 0.00 | 0.00 | 66 | 1011.9 |
| 20260505191648 | 81 | 171 | 9.6 | 12.2 | 0.00 | 0.00 | 0.00 | 66 | 1011.9 |
| 20260505191146 | 81 | 158 | 6.1 | 13.0 | 0.00 | 0.00 | 0.00 | 67 | 1011.9 |
| 20260505190647 | 81 | 154 | 8.7 | 15.6 | 0.00 | 0.00 | 0.00 | 66 | 1011.9 |
| 20260505190147 | 81 | 163 | 13.0 | 14.8 | 0.00 | 0.00 | 0.00 | 68 | 1012.2 |
| 20260505185646 | 81 | 156 | 7.0 | 13.9 | 0.00 | 0.00 | 0.00 | 67 | 1012.2 |
| 20260505185146 | 81 | 176 | 7.0 | 12.2 | 0.00 | 0.00 | 0.00 | 67 | 1012.2 |
| 20260505184646 | 81 | 161 | 7.0 | 13.9 | 0.00 | 0.00 | 0.00 | 67 | 1012.5 |
| 20260505184147 | 80 | 188 | 7.0 | 10.4 | 0.00 | 0.00 | 0.00 | 67 | 1012.5 |
| 20260505183646 | 80 | 178 | 7.8 | 13.9 | 0.00 | 0.00 | 0.00 | 67 | 1012.5 |
| 20260505183148 | 80 | 163 | 13.9 | 13.9 | 0.00 | 0.00 | 0.00 | 67 | 1012.5 |
| 20260505182647 | 81 | 164 | 7.0 | 13.0 | 0.00 | 0.00 | 0.00 | 66 | 1012.5 |